Radiation Dose at Monitoring Post of Fukushima Daini Nuclear Power Station
Date,Time,MP-1(microSv/h),MP-2(microSv/h),MP-3(microSv/h),MP-4(microSv/h),MP-5(microSv/h),MP-6(microSv/h),MP-7(microSv/h),Wind Direction,Wind Velocity(m/s),Rain
2018/10/04,00:00,0.302,0.189,0.308,0.295,0.279,0.152,0.093,north-northwest,5.1,No
2018/10/04,00:10,0.302,0.189,0.305,0.296,0.282,0.153,0.093,north-northwest,5.5,No
2018/10/04,00:20,0.302,0.190,0.307,0.294,0.280,0.152,0.094,north,5.0,No
2018/10/04,00:30,0.301,0.188,0.305,0.296,0.281,0.153,0.094,north,5.2,No
2018/10/04,00:40,0.302,0.189,0.307,0.294,0.280,0.152,0.093,north,5.6,No
2018/10/04,00:50,0.302,0.190,0.305,0.294,0.282,0.152,0.093,north-northwest,5.1,No
2018/10/04,01:00,0.301,0.189,0.306,0.294,0.283,0.151,0.093,north,5.7,No
2018/10/04,01:10,0.302,0.190,0.305,0.295,0.282,0.152,0.094,north-northwest,6.0,No
2018/10/04,01:20,0.302,0.189,0.304,0.295,0.281,0.152,0.094,north,6.5,No
2018/10/04,01:30,0.303,0.189,0.306,0.294,0.281,0.152,0.093,north,5.5,No
2018/10/04,01:40,0.301,0.189,0.304,0.296,0.281,0.153,0.093,north,6.8,No
2018/10/04,01:50,0.302,0.189,0.307,0.293,0.280,0.152,0.093,north,7.8,No
2018/10/04,02:00,0.301,0.189,0.306,0.296,0.282,0.153,0.093,north,6.1,No
2018/10/04,02:10,0.304,0.188,0.306,0.294,0.280,0.152,0.093,north,7.5,No
2018/10/04,02:20,0.301,0.189,0.305,0.295,0.282,0.153,0.093,north,7.9,No
2018/10/04,02:30,0.303,0.189,0.307,0.293,0.280,0.153,0.093,north,7.7,No
2018/10/04,02:40,0.302,0.189,0.305,0.294,0.282,0.152,0.094,north-northwest,7.8,No
2018/10/04,02:50,0.304,0.189,0.305,0.295,0.280,0.152,0.093,north-northwest,8.1,No
2018/10/04,03:00,0.302,0.188,0.306,0.295,0.281,0.152,0.093,north-northwest,7.7,No
2018/10/04,03:10,0.303,0.189,0.305,0.295,0.280,0.153,0.093,north,7.7,No
2018/10/04,03:20,0.301,0.188,0.306,0.294,0.282,0.151,0.093,north-northwest,7.4,No
2018/10/04,03:30,0.304,0.189,0.304,0.296,0.279,0.152,0.094,north-northwest,7.0,No
2018/10/04,03:40,0.302,0.188,0.306,0.293,0.283,0.151,0.093,north-northwest,7.5,No
2018/10/04,03:50,0.303,0.189,0.306,0.296,0.280,0.152,0.093,north-northwest,7.4,No
2018/10/04,04:00,0.302,0.188,0.307,0.293,0.284,0.152,0.093,north-northwest,8.1,No
2018/10/04,04:10,0.303,0.190,0.306,0.296,0.280,0.151,0.092,north-northwest,8.1,No
2018/10/04,04:20,0.301,0.189,0.307,0.294,0.282,0.152,0.093,north-northwest,7.5,No
2018/10/04,04:30,0.303,0.188,0.305,0.295,0.280,0.153,0.094,north,8.4,No
2018/10/04,04:40,0.303,0.189,0.307,0.295,0.282,0.152,0.093,north,7.6,No
2018/10/04,04:50,0.302,0.189,0.306,0.294,0.280,0.152,0.094,north-northwest,7.2,No
2018/10/04,05:00,0.302,0.190,0.306,0.295,0.281,0.152,0.093,north,7.1,No
2018/10/04,05:10,0.303,0.189,0.304,0.293,0.281,0.152,0.093,north-northwest,6.2,No
2018/10/04,05:20,0.302,0.190,0.305,0.296,0.281,0.152,0.093,north-northwest,5.9,No
2018/10/04,05:30,0.302,0.189,0.306,0.293,0.281,0.152,0.094,north,6.6,No
2018/10/04,05:40,0.301,0.187,0.305,0.295,0.280,0.153,0.094,north,6.8,No
2018/10/04,05:50,0.303,0.190,0.306,0.293,0.281,0.152,0.094,north,6.8,No
2018/10/04,06:00,0.302,0.189,0.304,0.295,0.279,0.152,0.093,north,6.8,No
2018/10/04,06:10,0.303,0.189,0.307,0.294,0.282,0.153,0.093,north,7.4,No
2018/10/04,06:20,0.302,0.189,0.304,0.296,0.281,0.153,0.093,north,7.2,No
2018/10/04,06:30,0.302,0.189,0.307,0.296,0.281,0.152,0.093,north-northwest,5.4,No
2018/10/04,06:40,0.302,0.189,0.305,0.295,0.279,0.152,0.093,north-northwest,7.3,No
2018/10/04,06:50,0.303,0.188,0.306,0.295,0.282,0.152,0.093,north-northwest,6.4,No
2018/10/04,07:00,0.301,0.189,0.306,0.294,0.280,0.152,0.094,north-northwest,7.0,No
2018/10/04,07:10,0.302,0.189,0.306,0.295,0.282,0.152,0.094,north-northwest,6.7,No
2018/10/04,07:20,0.302,0.188,0.305,0.293,0.280,0.153,0.093,north,6.8,No
2018/10/04,07:30,0.303,0.189,0.307,0.295,0.281,0.151,0.093,north-northwest,6.4,No
2018/10/04,07:40,0.301,0.189,0.305,0.294,0.280,0.152,0.093,north-northwest,6.1,No
2018/10/04,07:50,0.303,0.189,0.307,0.294,0.280,0.153,0.093,north,4.9,No
2018/10/04,08:00,0.300,0.188,0.305,0.293,0.281,0.152,0.093,north-northwest,2.3,No
2018/10/04,08:10,0.303,0.190,0.307,0.293,0.279,0.153,0.093,north,3.3,No
2018/10/04,08:20,0.300,0.188,0.306,0.295,0.283,0.152,0.094,north-northwest,2.5,No
2018/10/04,08:30,0.303,0.189,0.305,0.294,0.279,0.153,0.092,north,3.9,No
2018/10/04,08:40,0.301,0.189,0.307,0.295,0.280,0.151,0.093,north-northwest,3.5,No
2018/10/04,08:50,0.302,0.188,0.306,0.295,0.282,0.153,0.093,north,5.3,No
2018/10/04,09:00,0.303,0.190,0.307,0.292,0.279,0.153,0.092,north-northwest,5.4,No
2018/10/04,09:10,0.300,0.188,0.304,0.293,0.282,0.151,0.093,north,4.4,No
2018/10/04,09:20,0.304,0.187,0.308,0.295,0.282,0.151,0.092,north,5.6,No
2018/10/04,09:30,0.301,0.189,0.305,0.293,0.278,0.153,0.093,north,4.6,No
2018/10/04,09:40,0.299,0.188,0.308,0.290,0.280,0.151,0.093,north,5.4,No
2018/10/04,09:50,0.304,0.188,0.305,0.293,0.282,0.152,0.094,north,5.0,No
2018/10/04,10:00,0.303,0.190,0.305,0.293,0.279,0.152,0.094,north,5.0,No
2018/10/04,10:10,0.301,0.190,0.308,0.295,0.279,0.153,0.092,north,5.0,No
2018/10/04,10:20,0.299,0.188,0.304,0.292,0.279,0.152,0.093,north,4.4,No
2018/10/04,10:30,0.304,0.187,0.307,0.292,0.283,0.153,0.092,north,5.2,No
2018/10/04,10:40,0.304,0.189,0.307,0.291,0.281,0.152,0.093,north-northeast,5.3,No
2018/10/04,10:50,0.300,0.190,0.303,0.292,0.279,0.154,0.093,north,5.1,No
2018/10/04,11:00,0.303,0.188,0.307,0.295,0.279,0.153,0.092,north,4.7,No
2018/10/04,11:10,0.304,0.186,0.307,0.295,0.277,0.153,0.093,north,5.4,No
2018/10/04,11:20,0.302,0.188,0.306,0.294,0.278,0.152,0.092,north,5.1,No
2018/10/04,11:30,0.299,0.191,0.303,0.294,0.281,0.152,0.093,north,4.9,No
2018/10/04,11:40,0.302,0.189,0.307,0.293,0.282,0.153,0.094,north-northeast,3.7,No
2018/10/04,11:50,0.305,0.189,0.307,0.291,0.280,0.154,0.093,north-northeast,6.3,No
2018/10/04,12:00,0.301,0.187,0.305,0.295,0.279,0.152,0.092,north-northeast,5.5,No
2018/10/04,12:10,0.303,0.190,0.303,0.298,0.281,0.153,0.093,north-northeast,5.7,No
2018/10/04,12:20,0.304,0.189,0.308,0.295,0.284,0.152,0.094,north-northeast,6.1,No
2018/10/04,12:30,0.300,0.188,0.306,0.293,0.283,0.152,0.094,north-northeast,6.5,No
2018/10/04,12:40,0.302,0.190,0.303,0.293,0.280,0.153,0.094,north-northeast,5.6,No
2018/10/04,12:50,0.305,0.190,0.306,0.297,0.281,0.151,0.093,north-northeast,5.3,No
2018/10/04,13:00,0.302,0.187,0.307,0.296,0.283,0.152,0.093,north-northeast,5.3,No
2018/10/04,13:10,0.304,0.188,0.305,0.294,0.281,0.153,0.094,north-northeast,4.7,No
2018/10/04,13:20,0.304,0.190,0.307,0.297,0.279,0.153,0.093,north,5.2,No
2018/10/04,13:30,0.302,0.188,0.308,0.297,0.283,0.152,0.093,north-northeast,4.9,No
2018/10/04,13:40,0.303,0.189,0.305,0.294,0.282,0.152,0.094,north-northeast,5.5,No
2018/10/04,13:50,0.304,0.189,0.306,0.294,0.279,0.153,0.093,north-northeast,4.6,No
2018/10/04,14:00,0.303,0.189,0.307,0.297,0.280,0.152,0.093,north-northeast,5.5,No
2018/10/04,14:10,0.303,0.190,0.305,0.294,0.283,0.153,0.094,north-northeast,4.3,No
2018/10/04,14:20,0.304,0.190,0.308,0.294,0.282,0.153,0.093,north,4.9,No
2018/10/04,14:30,0.300,0.188,0.309,0.297,0.279,0.152,0.092,north,4.1,No
2018/10/04,14:40,0.304,0.190,0.305,0.296,0.283,0.152,0.093,north,3.9,No
2018/10/04,14:50,0.303,0.190,0.307,0.294,0.283,0.154,0.094,north,4.4,No
2018/10/04,15:00,0.302,0.189,0.304,0.297,0.279,0.153,0.093,north,3.4,No
2018/10/04,15:10,0.305,0.190,0.305,0.295,0.283,0.152,0.094,north,3.7,No
2018/10/04,15:20,0.302,0.189,0.308,0.295,0.283,0.154,0.093,north,4.1,No
2018/10/04,15:30,0.303,0.190,0.307,0.297,0.276,0.152,0.094,north,3.5,No
2018/10/04,15:40,0.304,0.191,0.305,0.296,0.282,0.152,0.095,north-northeast,3.2,No
2018/10/04,15:50,0.302,0.188,0.308,0.296,0.282,0.153,0.093,north,2.5,No
2018/10/04,16:00,0.304,0.190,0.307,0.297,0.281,0.153,0.093,north-northeast,3.9,No
2018/10/04,16:10,0.304,0.189,0.307,0.293,0.284,0.152,0.094,north,3.1,No
2018/10/04,16:20,0.303,0.191,0.308,0.297,0.281,0.153,0.094,north,3.0,No
2018/10/04,16:30,0.305,0.189,0.305,0.295,0.280,0.154,0.094,northwest,1.4,No
2018/10/04,16:40,0.302,0.189,0.308,0.295,0.282,0.153,0.094,north-northwest,1.6,No
2018/10/04,16:50,0.303,0.191,0.305,0.298,0.280,0.153,0.093,north-northwest,2.1,No
2018/10/04,17:00,0.302,0.189,0.308,0.295,0.284,0.153,0.095,north-northwest,2.1,No
2018/10/04,17:10,0.302,0.189,0.306,0.296,0.282,0.153,0.093,north,2.6,No
2018/10/04,17:20,0.304,0.189,0.308,0.296,0.283,0.152,0.094,north,2.4,No
2018/10/04,17:30,0.302,0.190,0.308,0.298,0.282,0.154,0.093,north,2.3,No
2018/10/04,17:40,0.304,0.188,0.307,0.296,0.280,0.153,0.093,north-northwest,2.3,No
2018/10/04,17:50,0.302,0.190,0.307,0.295,0.283,0.153,0.093,north-northwest,2.6,No
2018/10/04,18:00,0.305,0.189,0.308,0.297,0.280,0.153,0.094,north-northwest,2.0,No
2018/10/04,18:10,0.302,0.191,0.309,0.294,0.284,0.152,0.094,north-northwest,1.4,No
2018/10/04,18:20,0.305,0.189,0.306,0.298,0.281,0.153,0.094,north-northwest,2.3,No
2018/10/04,18:30,0.304,0.189,0.309,0.295,0.282,0.152,0.094,north-northwest,2.4,No
2018/10/04,18:40,0.303,0.190,0.305,0.297,0.282,0.153,0.093,north-northwest,1.8,No
2018/10/04,18:50,0.304,0.191,0.308,0.293,0.282,0.152,0.094,north-northwest,2.0,No
2018/10/04,19:00,0.302,0.189,0.307,0.297,0.283,0.153,0.094,north,1.7,No
2018/10/04,19:10,0.305,0.191,0.307,0.295,0.280,0.153,0.094,north,1.7,No
2018/10/04,19:20,0.303,0.189,0.307,0.296,0.282,0.152,0.094,north-northeast,1.1,Yes
2018/10/04,19:30,0.306,0.191,0.306,0.296,0.280,0.154,0.094,north,0.7,Yes
2018/10/04,19:40,0.303,0.189,0.307,0.297,0.282,0.153,0.094,north-northeast,0.9,No
2018/10/04,19:50,0.304,0.190,0.307,0.296,0.280,0.153,0.093,northeast,0.9,No
2018/10/04,20:00,0.303,0.190,0.307,0.296,0.283,0.153,0.094,northeast,1.5,No
2018/10/04,20:10,0.303,0.190,0.306,0.297,0.281,0.154,0.093,northeast,1.4,No
2018/10/04,20:20,0.305,0.190,0.308,0.296,0.281,0.154,0.094,east,1.6,No
2018/10/04,20:30,0.301,0.190,0.307,0.297,0.283,0.153,0.093,east-northeast,1.1,No
2018/10/04,20:40,0.305,0.189,0.309,0.295,0.280,0.152,0.095,east,1.6,No
2018/10/04,20:50,0.303,0.191,0.307,0.298,0.284,0.153,0.093,east-northeast,1.5,No
2018/10/04,21:00,0.305,0.191,0.309,0.295,0.281,0.153,0.094,east,1.9,No
2018/10/04,21:10,0.302,0.191,0.307,0.297,0.282,0.153,0.094,east-northeast,0.8,No
2018/10/04,21:20,0.305,0.190,0.307,0.297,0.281,0.153,0.093,east,1.6,No
2018/10/04,21:30,0.305,0.189,0.307,0.297,0.282,0.153,0.094,-,CALM,No
2018/10/04,21:40,0.305,0.189,0.308,0.295,0.282,0.154,0.093,-,CALM,No
2018/10/04,21:50,0.304,0.190,0.307,0.296,0.282,0.153,0.094,east-northeast,1.2,No
2018/10/04,22:00,0.304,0.189,0.308,0.295,0.282,0.153,0.094,-,CALM,No
2018/10/04,22:10,0.305,0.190,0.308,0.296,0.281,0.153,0.094,-,CALM,No
2018/10/04,22:20,0.302,0.190,0.308,0.296,0.283,0.153,0.093,east-northeast,1.5,No
2018/10/04,22:30,0.303,0.191,0.309,0.297,0.280,0.153,0.094,east,1.3,No
2018/10/04,22:40,0.302,0.189,0.306,0.296,0.282,0.154,0.094,east-northeast,1.8,No
2018/10/04,22:50,0.305,0.190,0.309,0.296,0.282,0.152,0.093,east-southeast,3.2,No
2018/10/04,23:00,0.302,0.190,0.306,0.296,0.283,0.154,0.093,east,2.8,No
2018/10/04,23:10,0.304,0.190,0.309,0.296,0.280,0.152,0.094,east,2.7,No
2018/10/04,23:20,0.304,0.189,0.305,0.295,0.283,0.153,0.093,east,2.6,No
2018/10/04,23:30,0.306,0.190,0.309,0.296,0.281,0.153,0.094,east,2.8,No
2018/10/04,23:40,0.303,0.189,0.307,0.298,0.284,0.153,0.093,east-southeast,1.7,No
2018/10/04,23:50,0.304,0.190,0.309,0.296,0.281,0.152,0.094,east,2.3,No
